TimeEST,TemperatureF,Dew PointF,Humidity,Sea Level PressureIn,VisibilityMPH,Wind Direction,Wind SpeedMPH,Gust SpeedMPH,PrecipitationIn,Events,Conditions,WindDirDegrees,DateUTC
12:15 AM,36.5,28.4,72,29.97,10.0,West,4.6,-,N/A,,Scattered Clouds,280,2013-02-15 05:15:00
12:35 AM,36.0,27.9,72,29.97,10.0,WSW,5.8,-,N/A,,Clear,240,2013-02-15 05:35:00
12:55 AM,34.0,27.5,77,29.97,10.0,SSW,6.9,-,N/A,,Scattered Clouds,200,2013-02-15 05:55:00
1:15 AM,33.1,27.5,80,29.97,10.0,SW,6.9,-,N/A,,Clear,220,2013-02-15 06:15:00
1:35 AM,32.4,27.1,81,29.97,10.0,SSW,8.1,-,N/A,,Clear,210,2013-02-15 06:35:00
1:55 AM,32.0,27.0,82,29.97,10.0,SSW,8.1,-,N/A,,Clear,210,2013-02-15 06:55:00
2:15 AM,32.0,27.1,82,29.98,10.0,SSW,8.1,-,N/A,,Clear,210,2013-02-15 07:15:00
2:35 AM,31.8,27.0,82,29.98,10.0,SSW,6.9,-,N/A,,Clear,210,2013-02-15 07:35:00
2:55 AM,31.6,26.8,82,29.98,10.0,SSW,8.1,-,N/A,,Clear,210,2013-02-15 07:55:00
3:15 AM,31.1,26.6,83,29.97,10.0,SSW,5.8,-,N/A,,Clear,200,2013-02-15 08:15:00
3:35 AM,30.9,26.4,83,29.98,7.0,SW,4.6,-,N/A,,Clear,230,2013-02-15 08:35:00
3:55 AM,29.8,25.5,84,29.98,10.0,SW,4.6,-,N/A,,Clear,220,2013-02-15 08:55:00
4:15 AM,28.9,25.0,85,29.98,7.0,WSW,6.9,-,N/A,,Clear,240,2013-02-15 09:15:00
4:35 AM,29.8,26.1,86,29.98,7.0,WSW,5.8,-,N/A,,Mostly Cloudy,240,2013-02-15 09:35:00
4:55 AM,29.7,25.5,85,29.99,10.0,SW,4.6,-,N/A,,Scattered Clouds,220,2013-02-15 09:55:00
5:15 AM,29.3,25.2,85,30.00,10.0,SW,3.5,-,N/A,,Scattered Clouds,230,2013-02-15 10:15:00
5:35 AM,29.7,25.2,83,30.00,10.0,WSW,5.8,-,N/A,,Overcast,240,2013-02-15 10:35:00
5:55 AM,30.0,25.5,83,30.01,10.0,SW,3.5,-,N/A,,Overcast,230,2013-02-15 10:55:00
6:15 AM,30.6,26.1,83,30.01,10.0,SW,4.6,-,N/A,,Overcast,230,2013-02-15 11:15:00
6:35 AM,31.5,26.8,83,30.02,7.0,SW,5.8,-,N/A,,Overcast,220,2013-02-15 11:35:00
6:55 AM,30.9,26.6,84,30.02,7.0,SW,5.8,-,N/A,,Overcast,220,2013-02-15 11:55:00
7:15 AM,31.5,27.1,84,30.02,7.0,SW,4.6,-,N/A,,Overcast,220,2013-02-15 12:15:00
7:35 AM,31.3,27.0,84,30.02,7.0,SW,3.5,-,N/A,,Overcast,230,2013-02-15 12:35:00
7:55 AM,30.9,26.8,85,30.03,5.0,WSW,4.6,-,N/A,,Overcast,240,2013-02-15 12:55:00
8:15 AM,31.1,27.1,85,30.04,5.0,SW,3.5,-,N/A,,Overcast,220,2013-02-15 13:15:00
8:35 AM,32.0,28.0,85,30.05,7.0,SSW,4.6,-,N/A,,Overcast,210,2013-02-15 13:35:00
8:55 AM,32.9,28.8,85,30.06,7.0,SW,4.6,-,N/A,,Overcast,220,2013-02-15 13:55:00
9:15 AM,33.8,29.3,84,30.06,7.0,SW,4.6,-,N/A,,Overcast,220,2013-02-15 14:15:00
9:35 AM,34.5,29.8,83,30.06,7.0,West,3.5,-,N/A,,Overcast,260,2013-02-15 14:35:00
9:55 AM,35.1,30.2,82,30.06,7.0,Calm,Calm,-,N/A,,Overcast,0,2013-02-15 14:55:00
10:15 AM,36.3,30.2,78,30.06,7.0,SW,4.6,-,N/A,,Overcast,230,2013-02-15 15:15:00
10:35 AM,36.9,30.0,76,30.06,10.0,WSW,4.6,-,N/A,,Overcast,250,2013-02-15 15:35:00
10:55 AM,37.4,28.9,71,30.06,10.0,West,4.6,-,N/A,,Overcast,270,2013-02-15 15:55:00
11:15 AM,37.9,28.2,68,30.06,10.0,West,5.8,-,N/A,,Overcast,260,2013-02-15 16:15:00
11:35 AM,39.4,28.6,65,30.05,10.0,WSW,6.9,-,N/A,,Overcast,240,2013-02-15 16:35:00
11:55 AM,39.9,29.1,65,30.05,10.0,SW,10.4,-,N/A,,Overcast,230,2013-02-15 16:55:00
12:15 PM,40.6,29.8,65,30.04,10.0,WSW,9.2,-,N/A,,Overcast,240,2013-02-15 17:15:00
12:55 PM,40.1,29.8,67,30.03,10.0,WSW,8.1,-,N/A,,Overcast,240,2013-02-15 17:55:00
1:15 PM,39.0,30.6,72,30.02,4.0,NW,6.9,-,N/A,,Unknown,320,2013-02-15 18:15:00
1:35 PM,36.3,31.3,82,30.02,1.8,NNW,6.9,-,N/A,Snow,Light Snow,340,2013-02-15 18:35:00
1:55 PM,34.9,31.1,86,30.02,4.0,NNW,10.4,-,N/A,Snow,Light Snow,330,2013-02-15 18:55:00
2:15 PM,34.2,30.6,87,30.02,1.2,NNW,8.1,-,N/A,Snow,Light Snow,330,2013-02-15 19:15:00
2:35 PM,32.7,30.0,90,30.02,0.5,NW,6.9,-,N/A,Snow,Snow,320,2013-02-15 19:35:00
2:55 PM,32.2,29.7,90,30.03,0.5,NW,5.8,-,N/A,Snow,Snow,320,2013-02-15 19:55:00
3:15 PM,32.5,29.5,88,30.03,3.0,NW,4.6,-,N/A,Snow,Light Snow,320,2013-02-15 20:15:00
3:35 PM,33.6,29.8,86,30.03,7.0,Calm,Calm,-,N/A,,Overcast,0,2013-02-15 20:35:00
3:55 PM,34.5,30.2,84,30.03,10.0,North,5.8,-,N/A,,Overcast,350,2013-02-15 20:55:00
4:15 PM,35.6,29.8,80,30.03,10.0,Calm,Calm,-,N/A,,Scattered Clouds,0,2013-02-15 21:15:00
4:35 PM,36.3,28.6,74,30.04,10.0,WNW,8.1,-,N/A,,Scattered Clouds,300,2013-02-15 21:35:00
4:55 PM,36.7,27.9,70,30.04,10.0,NW,8.1,-,N/A,,Mostly Cloudy,310,2013-02-15 21:55:00
5:15 PM,36.3,27.7,71,30.04,10.0,NW,8.1,-,N/A,,Overcast,320,2013-02-15 22:15:00
5:35 PM,35.8,27.1,71,30.04,10.0,NW,4.6,-,N/A,,Overcast,320,2013-02-15 22:35:00
5:55 PM,35.4,28.0,75,30.04,10.0,NW,5.8,-,N/A,,Overcast,320,2013-02-15 22:55:00
6:15 PM,35.4,28.0,75,30.05,5.0,WNW,8.1,-,N/A,Snow,Light Snow,300,2013-02-15 23:15:00
6:35 PM,35.1,28.6,77,30.06,10.0,West,8.1,-,N/A,,Overcast,270,2013-02-15 23:35:00
6:55 PM,34.3,29.1,81,30.07,2.5,NW,8.1,-,N/A,Snow,Light Snow,320,2013-02-15 23:55:00
7:15 PM,33.6,28.4,81,30.08,1.5,NNW,12.7,-,N/A,Snow,Light Snow,330,2013-02-16 00:15:00
7:35 PM,32.2,28.2,85,30.08,7.0,NNW,15.0,-,N/A,Snow,Light Snow,340,2013-02-16 00:35:00
7:55 PM,32.0,27.1,82,30.09,10.0,NNW,13.8,-,N/A,Snow,Light Snow,330,2013-02-16 00:55:00
8:15 PM,31.8,25.3,77,30.10,10.0,NNW,10.4,20.7,N/A,,Overcast,330,2013-02-16 01:15:00
8:35 PM,31.5,23.7,73,30.10,10.0,NNW,5.8,-,N/A,,Overcast,340,2013-02-16 01:35:00
8:55 PM,31.6,23.7,73,30.11,10.0,NW,6.9,-,N/A,,Overcast,320,2013-02-16 01:55:00
9:15 PM,31.6,23.2,71,30.11,10.0,NNW,8.1,-,N/A,,Overcast,330,2013-02-16 02:15:00
9:35 PM,31.3,23.5,73,30.11,10.0,NW,5.8,-,N/A,,Overcast,320,2013-02-16 02:35:00
9:55 PM,30.9,23.9,75,30.11,10.0,WNW,4.6,-,N/A,,Overcast,300,2013-02-16 02:55:00
10:15 PM,29.8,23.2,76,30.12,10.0,NW,4.6,-,N/A,,Scattered Clouds,310,2013-02-16 03:15:00
10:35 PM,28.9,22.8,78,30.11,10.0,Calm,Calm,-,N/A,,Clear,0,2013-02-16 03:35:00
10:55 PM,29.1,23.0,78,30.11,10.0,Calm,Calm,-,N/A,,Scattered Clouds,0,2013-02-16 03:55:00
11:15 PM,28.6,23.2,80,30.11,10.0,West,5.8,-,N/A,,Mostly Cloudy,260,2013-02-16 04:15:00
11:35 PM,28.6,23.7,82,30.11,10.0,West,4.6,-,N/A,,Overcast,280,2013-02-16 04:35:00
11:55 PM,29.3,23.5,79,30.10,10.0,WNW,4.6,-,N/A,,Overcast,300,2013-02-16 04:55:00